Location: Unspecified
(42.1248°N, 0.0000°E)
Time: 03:30:28
(UTC+00:00)

Courier 1B - Visible Passes

Search period start: 04 April 2026 00:00
Search period end: 14 April 2026 00:00
Orbit: 962 x 1208 km, 28.3° (Epoch: 28 March)

Date Brightness Start Highest point End Pass type
(mag) Time Alt. Az. Time Alt. Az. Time Alt. Az.
4 Apr 8.8 03:13:56 28° S 03:13:56 28° S 03:20:16 10° ESE visible
4 Apr 9.2 05:01:23 10° WSW 05:07:17 24° SSW 05:13:19 10° SE visible
5 Apr 9.4 02:23:20 20° SE 02:23:20 20° SE 02:26:16 10° ESE visible
5 Apr 9.0 04:10:13 20° SW 04:13:29 26° S 04:19:40 10° SE visible
6 Apr 8.8 03:19:40 27° S 03:19:40 27° S 03:25:54 10° SE visible
6 Apr 9.3 05:07:54 10° WSW 05:12:57 19° SSW 05:18:06 10° SSE visible
7 Apr 9.4 02:29:09 20° SE 02:29:09 20° SE 02:32:02 10° SE visible
7 Apr 9.1 04:16:03 17° SW 04:19:10 22° SSW 04:24:46 10° SSE visible
8 Apr 8.9 03:25:37 24° S 03:25:37 24° S 03:31:13 10° SE visible
9 Apr 9.5 02:35:15 18° SSE 02:35:15 18° SSE 02:37:32 10° SE visible
9 Apr 9.3 04:22:09 13° SW 04:24:50 16° SSW 04:29:09 10° SSE visible
10 Apr 9.2 03:31:54 18° S 03:31:54 18° S 03:36:02 10° SSE visible
11 Apr 9.7 02:41:43 13° SSE 02:41:43 13° SSE 02:42:39 10° SSE visible
12 Apr 9.6 03:38:34 12° S 03:38:34 12° S 03:39:46 10° S visible
